Location: *
(43.7900°N, 4.8325°E)
Time: 07:59:03
(UTC+00:00)

Daily predictions for brighter satellites

Satellite Brightness Start Highest point End
(mag) Time Altitude Azimuth Time Altitude Azimuth Time Altitude Azimuth
Cosmos 2315 Rocket 4.2 18:33:34 10° S 18:39:54 85° W 18:46:20 10° N
Aureole 3 4.1 18:37:30 10° S 18:42:11 71° E 18:48:14 10° NNE
GEOS 3 Rocket 3.6 18:37:09 10° SE 18:42:17 78° NE 18:47:32 10° NW
ARGOS Delta rocket 4.2 18:37:36 10° SSE 18:42:49 64° ENE 18:48:15 10° N
Cosmos 1709 Rocket 4.3 18:36:45 10° NNW 18:42:54 72° W 18:48:57 10° S
Cosmos 407 Rocket 4.4 18:39:05 10° SSE 18:43:14 25° E 18:47:23 10° NE
Cosmos 1992 Rocket 4.0 18:40:31 10° NNW 18:45:46 88° ENE 18:50:58 10° SSE
Cosmos 2228 3.8 18:43:14 10° SSE 18:47:00 30° E 18:50:48 10° NNE
Cosmos 1626 4.3 18:46:19 10° NNW 18:49:37 31° W 18:52:55 10° SSW
IRIDIUM 106 4.5 18:44:37 10° N 18:49:44 53° E 18:54:50 10° SSE
Cosmos 1603 3.7 18:44:30 10° SSW 18:50:08 90° W 18:55:47 10° NNE
Cosmos 1758 Rocket 3.8 18:46:10 10° N 18:50:23 48° ENE 18:54:33 10° SSE
Cosmos 1461 4.5 18:47:57 10° NNW 18:51:41 25° NE 18:55:30 10° E
STARLINK-29 4.2 18:53:12 10° S 18:55:49 23° SE 18:58:26 10° E
SJ-6B 3.5 18:52:09 10° SE 18:55:57 37° ENE 18:59:47 10° N
STARLINK-60 3.1 18:54:28 10° SW 18:57:41 56° SE 19:00:55 10° ENE
Cosmos 1606 Rocket 3.9 18:53:45 10° SSE 18:57:56 43° E 19:02:10 10° NNE
ATLAS 5 CENTAUR R/B 2.3 18:54:33 10° S 18:58:02 27° ESE 19:01:48 10° ENE
Cosmos 1953 Rocket 4.3 18:54:09 10° N 18:58:16 34° ENE 19:02:21 10° SE
Cosmos 2074 Rocket 4.1 18:53:41 10° N 18:59:56 63° E 19:06:10 10° SSE
Meteor 1-16 Rocket 4.2 18:57:05 10° S 19:02:22 62° E 19:07:52 10° NNE
ADEOS Rocket 4.1 18:56:27 10° N 19:02:33 49° WNW 19:08:04 10° SW
Cosmos 1818 3.6 18:57:28 10° SSW 19:02:54 87° ESE 19:08:23 10° NE
SL-8 R/B 4.3 19:01:34 10° WNW 19:06:10 50° SW 19:10:42 10° SE
Abrixas rocket 3.3 19:06:16 10° WNW 19:08:59 32° N 19:11:30 11° ENE
ISS -1.2 19:07:19 10° W 19:09:34 17° SW 19:11:49 10° S
Cosmos 1943 Rocket 3.5 19:07:09 10° NW 19:12:20 41° WSW 19:17:31 10° S
NOSS 3-4 (A) 4.0 19:07:02 10° NNW 19:13:56 60° NE 19:20:34 14° SE
NOSS 3-4 (C) 4.0 19:07:08 10° NNW 19:14:03 60° NE 19:20:38 14° SE
FALCON 9 DEB 3.8 19:14:27 10° SSW 19:17:40 35° SE 19:20:15 14° ENE
Cosmos 1300 4.2 19:17:24 17° E 19:17:53 17° E 19:20:25 10° NE
SL-4 R/B 2.1 19:15:09 10° WSW 19:18:31 57° NNW 19:21:54 10° NE
MOS 1 4.3 19:15:49 10° SSE 19:21:28 88° ENE 19:27:10 10° NNW
Cosmos 2369 Rocket 3.2 19:16:34 10° NW 19:21:59 46° WSW 19:27:20 10° S
Cosmos 1340 Rocket 3.3 19:18:32 10° SSE 19:22:18 39° E 19:26:04 10° NNE
MOS 1 Rocket 4.1 19:18:56 10° NNE 19:23:56 37° E 19:28:57 10° SSE
H-2A R/B 4.4 19:19:42 10° WSW 19:24:36 13° SW 19:27:21 10° SSW
H-2A R/B 2.2 19:20:01 10° S 19:25:15 75° WSW 19:30:21 10° NNW
STARLINK-67 3.6 19:23:54 10° NW 19:26:15 30° NNE 19:27:10 23° ENE
CZ-2C R/B 3.8 19:21:45 10° NNE 19:26:23 54° E 19:30:52 10° S
Cosmos 1703 3.2 19:22:36 10° N 19:26:36 76° E 19:30:33 10° SSE
Cosmos 1328 3.7 19:23:13 10° N 19:27:14 74° E 19:31:14 10° SSE
CZ-2C R/B 3.0 19:23:08 10° S 19:28:01 77° WSW 19:32:48 10° NNW
Cosmos 1437 4.0 19:29:41 10° NNW 19:32:32 38° W 19:35:22 10° SSW
Cosmos 1908 3.2 19:32:06 10° S 19:35:57 88° WNW 19:39:52 10° N
SL-08 RB Rocket 3.7 19:31:29 10° SSE 19:36:02 87° ENE 19:40:40 10° NNW
STARLINK-52 3.1 19:33:06 10° SW 19:36:13 49° SE 19:37:28 29° E
Resurs 1-3 3.7 19:37:17 21° SE 19:40:07 58° ENE 19:44:26 10° N
USA 234 3.7 19:37:33 10° ENE 19:43:31 37° SE 19:49:28 10° SSW
Cosmos 1943 4.5 19:40:52 10° SW 19:46:14 43° WNW 19:51:40 10° NNE
Ariane Rocket 4.3 19:41:29 10° SSW 19:46:15 41° W 19:51:02 10° NNW
ATLAS 2AS CENTAUR R/B 2.8 19:38:45 10° NW 19:46:22 88° SW 19:51:22 21° SSE
STARLINK-1228 3.7 19:43:49 10° NW 19:46:34 34° NNE 19:47:06 31° NE
Cosmos 1140 Rocket 3.3 19:45:35 10° SSW 19:50:45 75° ESE 19:55:56 10° NNE
Cosmos 1726 4.4 19:47:59 10° SW 19:51:11 27° WNW 19:54:26 10° NNW
Cosmos 1656 Rocket 4.4 19:50:14 10° NW 19:55:42 51° WSW 20:00:47 11° S
Cosmos 2341 Rocket 4.1 19:49:42 10° N 19:56:03 60° E 19:59:56 24° SSE
Cosmos 1190 Rocket 4.0 19:51:53 10° SSW 19:57:11 85° WNW 20:02:31 10° NNE
Cosmos 2058 Rocket 3.1 19:53:20 10° S 19:57:50 84° W 20:02:23 10° N
Spot 2 Rocket 4.2 19:56:54 30° E 19:58:14 35° ENE 20:02:51 10° N
Meteor 1-11 4.4 19:54:04 10° NNW 19:59:49 75° W 20:05:00 13° S
MetOp-A 4.2 19:55:38 15° S 20:00:06 80° WSW 20:05:29 10° NNW
DMSP B5D2-2 4.0 19:56:28 10° NNE 20:01:43 86° ESE 20:06:58 10° SSW
CZ-2C R/B 2.4 19:57:11 10° NNE 20:02:22 75° ESE 20:07:35 10° S
COSMOS 2455 2.9 19:56:28 10° NNW 20:02:31 67° ENE 20:05:12 34° SE
ARGOS 4.4 20:01:36 10° SSW 20:06:37 39° W 20:11:39 10° NNW
Resurs 01 Rocket 1.5 20:08:30 40° SSE 20:10:04 84° ENE 20:14:30 10° NNW
Cosmos 2218 Rocket 4.3 20:04:21 10° N 20:10:21 47° ENE 20:12:18 36° ESE
ERBS 4.2 20:09:34 10° NNW 20:12:13 21° NNE 20:12:22 21° NNE
BREEZE-M DEB (TANK) 3.2 20:11:26 10° W 20:14:42 28° NNW 20:15:10 26° N
STARLINK-1234 3.8 20:17:25 10° NW 20:19:47 45° NNW 20:19:47 45° NNW
STARLINK-1233 3.9 20:17:26 10° NW 20:19:56 42° N 20:19:56 42° N
Cosmos 921 Rocket 3.1 20:16:35 10° NNW 20:20:45 68° WSW 20:21:45 48° SSW
STARLINK-1212 3.9 20:17:54 10° NW 20:20:22 41° N 20:20:22 41° N
STARLINK-1105 3.9 20:18:19 10° NW 20:20:48 41° N 20:20:48 41° N
STARLINK-1209 3.8 20:18:33 10° NW 20:20:51 45° NNW 20:20:51 45° NNW
STARLINK-1206 4.0 20:18:49 10° NW 20:21:13 40° N 20:21:13 40° N
STARLINK-1247 4.0 20:19:15 10° NW 20:21:39 40° NNW 20:21:39 40° NNW
STARLINK-1227 4.0 20:19:40 10° NW 20:22:06 41° NNW 20:22:06 41° NNW
USA 245 4.5 20:21:27 44° ESE 20:23:00 58° ENE 20:29:12 10° N
STARLINK-1218 4.0 20:20:10 10° NW 20:22:31 40° NNW 20:22:31 40° NNW
Cosmos 962 Rocket 4.5 20:17:19 10° N 20:23:29 79° W 20:27:13 25° S
STARLINK-1226 4.0 20:20:36 10° NW 20:22:58 40° NNW 20:22:58 40° NNW
STARLINK-1254 4.0 20:21:01 10° NW 20:23:24 40° NNW 20:23:24 40° NNW
Cosmos 2181 Rocket 3.9 20:20:34 25° S 20:24:20 73° E 20:30:31 10° NNE
STARLINK-1215 4.1 20:21:31 10° NW 20:23:49 39° NNW 20:23:49 39° NNW
STARLINK-1231 4.1 20:21:58 10° NW 20:24:15 39° NNW 20:24:15 39° NNW
STARLINK-1232 4.1 20:22:52 10° NW 20:25:08 39° NNW 20:25:08 39° NNW
Cosmos 676 Rocket 4.1 20:20:40 10° SSW 20:25:58 79° WNW 20:31:15 10° NNE
STARLINK-1217 4.2 20:23:18 10° NW 20:25:33 39° NNW 20:25:33 39° NNW
STARLINK-1208 4.1 20:23:43 10° NW 20:26:00 39° NNW 20:26:00 39° NNW
SL-8 Rocket 3.9 20:20:29 10° N 20:26:49 75° E 20:29:12 41° SSE
BREEZE-M DEB (TANK) 3.5 20:22:39 10° WNW 20:26:31 56° W 20:26:31 56° W
ERS-1 Rocket 3.9 20:27:20 32° ENE 20:27:20 32° ENE 20:31:40 10° N
STARLINK-1229 4.2 20:24:12 10° NW 20:26:25 38° NNW 20:26:25 38° NNW
STARLINK-1271 4.2 20:24:38 10° NW 20:26:52 38° NNW 20:26:52 38° NNW
STARLINK-1270 4.2 20:25:07 10° NW 20:27:17 38° NNW 20:27:17 38° NNW
STARLINK-1154 4.3 20:25:33 10° NW 20:27:43 37° NNW 20:27:43 37° NNW
Cosmos 1812 Rocket 3.9 20:29:45 50° NE 20:29:45 50° NE 20:33:15 10° NNE
Cosmos 864 Rocket 4.5 20:23:12 10° N 20:29:21 60° E 20:30:45 48° SE
STARLINK-1197 4.3 20:26:27 10° NW 20:28:36 37° NNW 20:28:36 37° NNW
STARLINK-1189 4.3 20:26:54 10° NW 20:29:01 37° NNW 20:29:01 37° NNW
STARLINK-1198 4.3 20:27:21 10° NW 20:29:27 36° NNW 20:29:27 36° NNW
STARLINK-1188 4.4 20:27:48 10° NW 20:29:53 36° NNW 20:29:53 36° NNW
Cosmos 1461 3.7 20:26:36 10° NW 20:31:01 50° WSW 20:32:00 42° SSW
Cosmos 1980 Rocket 4.2 20:28:33 10° N 20:31:27 14° NE 20:32:34 13° NE
STARLINK-1235 4.3 20:28:25 10° NW 20:30:32 39° NW 20:30:32 39° NW
STARLINK-29 4.2 20:28:43 10° WSW 20:31:20 41° NW 20:31:20 41° NW
STARLINK-1187 4.3 20:28:52 10° NW 20:30:59 38° NW 20:30:59 38° NW
STARLINK-1199 4.4 20:29:43 10° NW 20:31:48 36° NNW 20:31:48 36° NNW
SPOT 5 4.1 20:34:13 24° NE 20:34:13 24° NE 20:36:48 10° N
STARLINK-1191 4.4 20:30:11 10° NW 20:32:15 35° NW 20:32:15 35° NW
Cosmos 1892 4.0 20:29:36 10° N 20:32:00 31° NNE 20:32:00 31° NNE
STARLINK-1210 4.5 20:30:38 10° NW 20:32:40 35° NW 20:32:40 35° NW
STARLINK-1221 4.5 20:31:05 10° NW 20:33:07 35° NW 20:33:07 35° NW
STARLINK-1219 4.5 20:31:32 10° NW 20:33:32 35° NW 20:33:32 35° NW
STARLINK-1240 4.5 20:32:37 10° NW 20:36:34 40° NNE 20:36:36 40° NNE
Cosmos 220 Rocket 4.1 20:34:19 10° NNW 20:38:14 64° NNE 20:38:14 64° NNE
Cosmos 2366 rocket 3.8 20:33:32 10° N 20:39:41 75° E 20:41:05 55° SSE
Terra 3.3 20:42:27 24° NE 20:42:27 24° NE 20:45:25 10° N
STARLINK-1216 4.5 20:37:36 10° NW 20:41:24 42° NNE 20:41:24 42° NNE
ATLAS 5 CENTAUR R/B 3.1 20:38:35 10° WSW 20:42:28 35° NW 20:46:48 10° NNE
Abrixas rocket 4.5 20:41:52 10° WNW 20:43:05 22° WNW 20:43:05 22° WNW
Cosmos 1959 Rocket 4.4 20:39:49 10° N 20:46:10 86° E 20:47:43 55° SSE
STARLINK-1237 4.5 20:42:33 10° NW 20:46:09 44° N 20:46:09 44° N
Cosmos 2058 3.5 20:47:36 10° N 20:50:48 53° N 20:50:48 53° N
Cosmos 192 4.3 20:47:23 10° NNW 20:52:09 80° NNE 20:52:09 80° NNE
SPOT 1/Viking Rocket 3.5 20:52:37 71° ENE 20:52:37 71° ENE 20:57:45 10° N
Cosmos 1300 4.3 20:52:16 28° WSW 20:53:15 32° WNW 20:56:44 10° N
Cosmos 1741 Rocket 4.4 20:54:59 53° NE 20:54:59 53° NE 20:59:10 10° NNE
RESURS DK-1 4.1 20:50:55 10° N 20:53:17 24° NNE 20:53:17 24° NNE
SL-4 R/B 3.8 20:55:46 10° WNW 20:58:16 23° NNW 20:58:16 23° NNW
Cosmos 1076 Rocket 4.1 20:55:32 10° NNW 20:59:03 56° NW 20:59:03 56° NW
In-Cosmos 22 Rocket 4.4 20:55:34 10° NNW 21:01:23 70° W 21:02:23 58° SSW
Cosmos 1833 Rocket 4.5 21:13:43 20° NE 21:13:43 20° NE 21:15:28 10° NE
Cosmos 1763 Rocket 3.7 21:06:02 10° NNW 21:10:29 65° N 21:10:29 65° N
Cosmos 489 Rocket 4.5 21:08:41 10° NNW 21:14:41 67° NE 21:14:41 67° NE
BREEZE M DEB (TANK) 3.7 21:12:40 10° WSW 21:16:34 71° NNW 21:29:42 10° ENE
COSMOS 2406 3.7 21:21:00 51° NNE 21:21:00 51° NNE 21:25:13 10° NNE
Cosmos 540 Rocket 4.4 21:15:37 10° N 21:19:20 40° NNE 21:19:20 40° NNE
Cosmos 1821 Rocket 4.1 21:14:44 10° N 21:20:35 62° NE 21:20:35 62° NE
Meteor 2-10 Rocket 4.2 21:23:20 47° NNE 21:23:20 47° NNE 21:27:11 10° NNE
SL-08 R/B 4.5 21:18:45 10° NNW 21:24:53 74° W 21:25:05 74° WSW
USA 234 3.4 21:20:18 10° NE 21:26:48 71° NW 21:33:18 10° WSW
CZ-4C R/B 3.4 21:34:25 10° NNW 21:41:15 47° NE 21:42:00 46° ENE
Cosmos 2369 4.3 21:35:47 10° NNW 21:40:06 50° N 21:40:06 50° N
Cosmos 1697 Rocket 3.4 21:41:32 10° NNW 21:45:47 51° N 21:45:47 51° N
Cosmos 841 Rocket 4.5 21:43:17 10° NNW 21:46:53 44° NNW 21:46:53 44° NNW
Mayak 1.6 21:47:29 10° NNE 21:47:47 12° NNE 21:47:47 12° NNE
ATLAS CENTAUR R/B 4.1 21:52:11 10° NNW 21:52:56 15° NNW 21:52:56 15° NNW
SL-16 R/B 4.1 22:00:48 10° N 22:04:14 21° NE 22:04:14 21° NE
Cosmos 2322 Rocket 4.2 22:09:19 10° N 22:12:34 20° NE 22:12:34 20° NE
Cosmos 1980 Rocket 3.4 22:10:52 10° NNW 22:14:20 38° N 22:14:20 38° N
Terra 3.9 22:21:20 23° NW 22:21:20 23° NW 22:23:29 10° NNW
Cosmos 2082 Rocket 3.8 22:45:47 29° N 22:45:47 29° N 22:48:39 10° NNE
Cosmos 1833 Rocket 4.4 22:55:21 29° NNW 22:55:21 29° NNW 22:59:13 10° N
Cosmos 2344 4.3 22:47:40 10° NW 22:57:32 89° SW 22:58:33 79° SSE
CZ-4C R/B 4.0 23:22:56 10° NW 23:27:10 35° WNW 23:27:10 35° WNW
SL-16 R/B 4.2 23:44:08 10° NNW 23:46:05 22° NNW 23:46:05 22° NNW
Cosmos 2360 Rocket 4.0 23:47:46 10° NNW 23:50:15 26° N 23:50:15 26° N
